Weather History for Minneapolis, MN

Change the Weather History Date:

Friday, November 8, 2013

  Actual Average Record
Temperature  
Mean Temperature 36 °F 38 °F  
Max Temperature 47 °F 46 °F 77 °F (1999)
Min Temperature 24 °F 30 °F 1 °F (1991)
Degree Days  
Heating Degree Days 29 27  
Month to date heating degree days 204 200  
Since 1 July heating degree days 757 880  
Cooling Degree Days 0 0  
Month to date cooling degree days 0 0  
Year to date cooling degree days 983 753  
Moisture  
Dew Point 29 °F    
Average Humidity 75    
Maximum Humidity 100    
Minimum Humidity 49    
Precipitation  
Precipitation T in 0.05 in 1.51 in (1932)
Month to date precipitation 0.40 0.47  
Year to date precipitation 31.19 28.15  
Snow  
Snow 0.00 in 0.20 in 8.50 in (1943)
Month to date snowfall 1.1 1.4  
Since 1 July snowfall 1.1 2.0  
Since 1 September snowfall 1.1 2.0  
Snow Depth 0.00 in    
Sea Level Pressure  
Sea Level Pressure 29.91 in    
Wind  
Wind Speed 12 mph (SE)    
Max Wind Speed 24 mph    
Max Gust Speed 30 mph    
Visibility 8 miles    
Events Rain    
T = Trace of Precipitation, MM = Missing Value Source: NWS Daily Summary

Daily Weather History Graph

Daily Weather History Graph

Search for Another Location

Airport:

Trip Planner

Search our weather history database for the weather conditions in past years. The results will help you decide how hot, cold, wet, or windy it might be!

Date:

Astronomy

Nov. 08, 2013 Rise Set
Actual Time 7:01 AM CST 4:51 PM CST
Civil Twilight 6:29 AM CST 5:22 PM CST
Nautical Twilight 5:54 AM CST 5:57 PM CST
Astronomical Twilight 5:20 AM CST 6:32 PM CST
Moon 11:57 AM CST (11/8) 10:14 PM CST (11/8)
Length of Visible Light 10h 52m
Length of Day
9h 50m
Waxing Crescent, 33% of the Moon is Illuminated
Nov 8
Waxing Crescent
Nov 9
First Quarter
Nov 17
Full
Nov 25
Last Quarter
Dec 2
New

Hourly Weather History & Observations

Time (CST) Temp. Windchill Dew Point Humidity Pressure Visibility Wind Dir Wind Speed Gust Speed Precip Events Conditions
12:53 AM 28.0 °F 21.7 °F 25.0 °F 88% 30.23 in 5.0 mi SSW 5.8 mph - N/A   Clear
1:53 AM 28.0 °F - 25.0 °F 88% 30.22 in 4.0 mi Calm Calm - N/A   Clear
2:53 AM 27.0 °F 23.0 °F 25.0 °F 92% 30.22 in 4.0 mi South 3.5 mph - N/A   Clear
3:53 AM 25.0 °F 19.3 °F 24.1 °F 96% 30.20 in 5.0 mi ESE 4.6 mph - N/A   Clear
4:53 AM 25.0 °F 19.3 °F 24.1 °F 96% 30.20 in 6.0 mi ESE 4.6 mph - N/A   Clear
5:53 AM 25.0 °F 18.1 °F 23.0 °F 92% 30.19 in 7.0 mi ESE 5.8 mph - N/A   Scattered Clouds
6:53 AM 27.0 °F 20.5 °F 25.0 °F 92% 30.17 in 7.0 mi ESE 5.8 mph - N/A   Overcast
7:53 AM 28.0 °F 21.7 °F 26.1 °F 92% 30.15 in 7.0 mi ESE 5.8 mph - N/A   Overcast
8:53 AM 30.9 °F 25.2 °F 28.0 °F 89% 30.13 in 7.0 mi ESE 5.8 mph - N/A   Overcast
9:53 AM 34.0 °F 25.5 °F 28.9 °F 82% 30.08 in 8.0 mi SE 11.5 mph - N/A   Overcast
10:53 AM 36.0 °F 27.5 °F 28.9 °F 76% 30.05 in 10.0 mi SE 12.7 mph - N/A   Overcast
11:24 AM 37.4 °F 28.9 °F 28.4 °F 70% 29.98 in 10.0 mi ESE 13.8 mph - 0.00 in Rain Light Rain
11:53 AM 37.9 °F 29.2 °F 28.0 °F 68% 29.99 in 9.0 mi ESE 15.0 mph - 0.00 in Rain Light Rain
12:15 PM 39.2 °F 30.5 °F 28.4 °F 65% 29.92 in 9.0 mi ESE 16.1 mph - 0.00 in   Overcast
12:53 PM 41.0 °F 31.6 °F 27.0 °F 57% 29.91 in 10.0 mi SE 20.7 mph 25.3 mph 0.00 in   Overcast
1:20 PM 41.0 °F 31.6 °F 26.6 °F 57% 29.85 in 10.0 mi SE 20.7 mph 26.5 mph N/A   Mostly Cloudy
1:53 PM 42.1 °F 33.3 °F 26.1 °F 53% 29.85 in 10.0 mi SE 19.6 mph 25.3 mph N/A   Overcast
2:26 PM 42.8 °F 34.5 °F 26.6 °F 53% 29.77 in 10.0 mi ESE 18.4 mph - N/A   Overcast
2:53 PM 42.1 °F 33.3 °F 26.1 °F 53% 29.79 in 10.0 mi SE 19.6 mph - N/A   Overcast
3:53 PM 43.0 °F 35.1 °F 27.0 °F 53% 29.78 in 10.0 mi SE 17.3 mph - N/A   Overcast
4:53 PM 44.1 °F 38.1 °F 27.0 °F 51% 29.77 in 10.0 mi SE 11.5 mph - N/A   Mostly Cloudy
5:53 PM 45.0 °F 38.5 °F 28.0 °F 52% 29.73 in 10.0 mi SSE 13.8 mph 26.5 mph N/A   Mostly Cloudy
6:53 PM 45.0 °F 37.1 °F 28.9 °F 53% 29.69 in 10.0 mi SSE 19.6 mph 25.3 mph N/A   Overcast
7:53 PM 45.0 °F 36.9 °F 30.9 °F 58% 29.66 in 10.0 mi SSE 20.7 mph 26.5 mph N/A   Mostly Cloudy
8:53 PM 44.1 °F 37.1 °F 34.0 °F 68% 29.64 in 8.0 mi South 15.0 mph - 0.00 in Rain Light Rain
9:53 PM 46.0 °F 41.9 °F 37.0 °F 71% 29.62 in 10.0 mi SSW 8.1 mph - 0.00 in   Mostly Cloudy
10:53 PM 46.0 °F 39.6 °F 39.0 °F 76% 29.62 in 10.0 mi WSW 15.0 mph 23.0 mph N/A   Mostly Cloudy
11:30 PM 46.4 °F 40.4 °F 39.2 °F 76% 29.61 in 10.0 mi West 13.8 mph 21.9 mph N/A   Overcast
11:53 PM 46.0 °F 39.3 °F 39.0 °F 76% 29.63 in 10.0 mi West 16.1 mph 21.9 mph N/A   Overcast